DLH08F LEBL-EDDF

Flight info

Callsign DLH08F
Flight time 1h 37m
Altitude 36000
Route DALIN DCT PIVUS DCT DIBER DCT ADITA DCT MAXIR DCT LUSOL DCT BODRU DCT OKTET DCT IRMAR DCT KINES DCT VANAS DCT ESOKO DCT GODRA DCT LADOL T163 EMPAX EMPAX5B
Aircraft A321/M-SDE3FGHIRWY/LB1

Departure

Time 2026-05-07 14:26
Airport Josep Tarradellas Barcelona-El Prat Airport (LEBL)

Arrival

Time 2026-05-07 16:03
Airport Frankfurt Main Airport (EDDF)
Time Latitude Longitude Altitude Speed Heading
2026-05-07 13:35 41.28978 2.07901 21 ft 0 kts 336°
2026-05-07 14:18 41.28970 2.07906 21 ft 4 kts 334°
2026-05-07 14:18 41.28946 2.07922 24 ft 4 kts 326°
2026-05-07 14:18 41.28925 2.07945 23 ft 4 kts 307°
2026-05-07 14:18 41.28916 2.07973 22 ft 4 kts 256°
2026-05-07 14:19 41.28917 2.07980 23 ft 0 kts 246°
2026-05-07 14:22 41.28917 2.07979 22 ft 0 kts 246°
2026-05-07 14:22 41.28909 2.07957 23 ft 5 kts 246°
2026-05-07 14:22 41.28888 2.07895 21 ft 8 kts 243°
2026-05-07 14:22 41.28841 2.07852 21 ft 9 kts 178°
2026-05-07 14:23 41.28780 2.07886 21 ft 11 kts 156°
2026-05-07 14:23 41.28708 2.07930 21 ft 12 kts 154°
2026-05-07 14:23 41.28627 2.07974 21 ft 12 kts 175°
2026-05-07 14:23 41.28572 2.07888 21 ft 14 kts 245°
2026-05-07 14:24 41.28531 2.07770 21 ft 14 kts 245°
2026-05-07 14:24 41.28496 2.07669 23 ft 12 kts 245°
2026-05-07 14:24 41.28452 2.07580 21 ft 12 kts 210°
2026-05-07 14:24 41.28374 2.07539 21 ft 13 kts 200°
2026-05-07 14:25 41.28309 2.07487 21 ft 11 kts 238°
2026-05-07 14:25 41.28256 2.07432 22 ft 9 kts 163°
2026-05-07 14:25 41.28243 2.07459 22 ft 4 kts 97°
2026-05-07 14:25 41.28271 2.07560 24 ft 31 kts 64°
2026-05-07 14:26 41.28466 2.08133 20 ft 104 kts 65°
2026-05-07 14:26 41.28857 2.09272 91 ft 153 kts 67°
2026-05-07 14:26 41.29253 2.10571 826 ft 151 kts 81°
2026-05-07 14:26 41.29177 2.11971 1423 ft 160 kts 102°
2026-05-07 14:27 41.29003 2.13547 1730 ft 183 kts 96°
2026-05-07 14:27 41.28862 2.15311 2175 ft 198 kts 96°
2026-05-07 14:27 41.28714 2.17153 2802 ft 203 kts 96°
2026-05-07 14:27 41.28561 2.19035 3360 ft 207 kts 95°
2026-05-07 14:28 41.28402 2.20941 3930 ft 208 kts 96°
2026-05-07 14:28 41.28239 2.22867 4470 ft 211 kts 96°
2026-05-07 14:28 41.28072 2.24825 5033 ft 213 kts 95°
2026-05-07 14:28 41.27905 2.26782 5615 ft 214 kts 96°
2026-05-07 14:29 41.27737 2.28756 6147 ft 217 kts 96°
2026-05-07 14:29 41.27564 2.30777 6646 ft 222 kts 96°
2026-05-07 14:29 41.27366 2.32869 6907 ft 239 kts 98°
2026-05-07 14:29 41.27126 2.35168 7094 ft 264 kts 98°
2026-05-07 14:30 41.26859 2.37666 7565 ft 276 kts 98°
2026-05-07 14:30 41.26586 2.40209 8248 ft 280 kts 98°
2026-05-07 14:30 41.26341 2.42796 8942 ft 284 kts 91°
2026-05-07 14:30 41.26655 2.45353 9607 ft 288 kts 68°
2026-05-07 14:31 41.27696 2.47688 10209 ft 295 kts 55°
2026-05-07 14:31 41.28902 2.49975 10348 ft 318 kts 55°
2026-05-07 14:31 41.30234 2.52494 10482 ft 340 kts 55°
2026-05-07 14:31 41.31631 2.55143 10719 ft 355 kts 55°
2026-05-07 14:32 41.33039 2.57820 11210 ft 362 kts 55°
2026-05-07 14:32 41.34512 2.60631 11752 ft 367 kts 55°
2026-05-07 14:32 41.35953 2.63389 12342 ft 371 kts 55°
2026-05-07 14:32 41.37458 2.66273 12911 ft 375 kts 56°
2026-05-07 14:33 41.38935 2.69102 13487 ft 379 kts 56°
2026-05-07 14:33 41.40470 2.72043 14013 ft 384 kts 56°
2026-05-07 14:33 41.42001 2.74974 14537 ft 387 kts 56°
2026-05-07 14:33 41.43545 2.77933 15039 ft 391 kts 56°
2026-05-07 14:34 41.45093 2.80905 15567 ft 393 kts 56°
2026-05-07 14:34 41.46657 2.83918 16082 ft 397 kts 56°
2026-05-07 14:34 41.48235 2.86962 16599 ft 400 kts 56°
2026-05-07 14:34 41.49834 2.90042 17118 ft 404 kts 56°
2026-05-07 14:35 41.51416 2.93088 17602 ft 407 kts 56°
2026-05-07 14:35 41.53059 2.96251 18078 ft 411 kts 56°
2026-05-07 14:35 41.54673 2.99363 18495 ft 414 kts 56°
2026-05-07 14:35 41.56341 3.02588 18896 ft 418 kts 56°
2026-05-07 14:36 41.57977 3.05761 19284 ft 421 kts 56°
2026-05-07 14:36 41.59666 3.09042 19663 ft 425 kts 56°
2026-05-07 14:36 41.61347 3.12314 20045 ft 429 kts 56°
2026-05-07 14:36 41.63021 3.15567 20426 ft 432 kts 56°
2026-05-07 14:37 41.64752 3.18934 20820 ft 435 kts 56°
2026-05-07 14:37 41.68186 3.25625 21584 ft 442 kts 56°
2026-05-07 14:37 41.69928 3.29029 21962 ft 445 kts 56°
2026-05-07 14:38 41.71679 3.32455 22334 ft 448 kts 56°
2026-05-07 14:38 41.73370 3.35981 22703 ft 451 kts 62°
2026-05-07 14:38 41.74719 3.39775 23085 ft 453 kts 67°
2026-05-07 14:38 41.76004 3.43645 23459 ft 456 kts 67°
2026-05-07 14:39 41.77295 3.47531 23770 ft 459 kts 67°
2026-05-07 14:39 41.78599 3.51452 24067 ft 463 kts 67°
2026-05-07 14:39 41.79915 3.55416 24355 ft 466 kts 67°
2026-05-07 14:39 41.81234 3.59402 24636 ft 469 kts 67°
2026-05-07 14:40 41.82562 3.63416 24911 ft 473 kts 67°
2026-05-07 14:40 41.83904 3.67475 25186 ft 476 kts 67°
2026-05-07 14:40 41.85248 3.71550 25458 ft 479 kts 67°
2026-05-07 14:40 41.86595 3.75645 25731 ft 483 kts 68°
2026-05-07 14:41 41.87953 3.79784 26003 ft 486 kts 68°
2026-05-07 14:41 41.89319 3.83951 26260 ft 489 kts 68°
2026-05-07 14:41 41.90692 3.88149 26511 ft 493 kts 68°
2026-05-07 14:41 41.92069 3.92371 26791 ft 496 kts 68°
2026-05-07 14:42 41.93479 3.96689 27069 ft 499 kts 68°
2026-05-07 14:42 41.94873 4.00955 27289 ft 499 kts 67°
2026-05-07 14:42 41.96268 4.05181 27418 ft 491 kts 67°
2026-05-07 14:42 41.97645 4.09334 27537 ft 486 kts 67°
2026-05-07 14:43 41.99014 4.13532 27674 ft 492 kts 68°
2026-05-07 14:43 42.00377 4.17791 27806 ft 498 kts 68°
2026-05-07 14:43 42.01749 4.22099 27929 ft 505 kts 68°
2026-05-07 14:43 42.03137 4.26455 28066 ft 510 kts 68°
2026-05-07 14:44 42.04547 4.30854 28259 ft 514 kts 68°
2026-05-07 14:44 42.05986 4.35270 28471 ft 517 kts 65°
2026-05-07 14:44 42.07745 4.39509 28681 ft 521 kts 56°
2026-05-07 14:44 42.09923 4.43399 28894 ft 523 kts 47°
2026-05-07 14:45 42.12481 4.46889 29098 ft 523 kts 39°
2026-05-07 14:45 42.15213 4.50156 29355 ft 523 kts 39°
2026-05-07 14:45 42.17919 4.53412 29654 ft 524 kts 39°
2026-05-07 14:45 42.20649 4.56713 29924 ft 525 kts 39°
2026-05-07 14:46 42.23351 4.59989 30163 ft 526 kts 39°
2026-05-07 14:46 42.26089 4.63308 30391 ft 527 kts 39°
2026-05-07 14:46 42.28823 4.66617 30615 ft 527 kts 39°
2026-05-07 14:46 42.31543 4.69909 30875 ft 527 kts 39°
2026-05-07 14:47 42.34279 4.73224 31147 ft 526 kts 39°
2026-05-07 14:47 42.37008 4.76538 31408 ft 526 kts 39°
2026-05-07 14:47 42.39719 4.79837 31650 ft 526 kts 39°
2026-05-07 14:47 42.42443 4.83158 31898 ft 527 kts 39°
2026-05-07 14:48 42.45172 4.86488 32144 ft 527 kts 39°
2026-05-07 14:48 42.47896 4.89810 32376 ft 527 kts 39°
2026-05-07 14:48 42.50625 4.93141 32633 ft 528 kts 39°
2026-05-07 14:48 42.53356 4.96475 32883 ft 527 kts 39°
2026-05-07 14:49 42.56113 4.99842 33190 ft 526 kts 39°
2026-05-07 14:49 42.58788 5.03113 33437 ft 525 kts 39°
2026-05-07 14:49 42.61507 5.06447 33699 ft 525 kts 39°
2026-05-07 14:49 42.64206 5.09770 33940 ft 525 kts 39°
2026-05-07 14:50 42.66915 5.13114 34153 ft 525 kts 39°
2026-05-07 14:50 42.69624 5.16461 34384 ft 525 kts 39°
2026-05-07 14:50 42.72319 5.19790 34611 ft 524 kts 39°
2026-05-07 14:50 42.75013 5.23116 34847 ft 522 kts 39°
2026-05-07 14:51 42.77704 5.26435 35087 ft 521 kts 39°
2026-05-07 14:51 42.80377 5.29737 35325 ft 520 kts 40°
2026-05-07 14:51 42.83060 5.33058 35564 ft 519 kts 40°
2026-05-07 14:51 42.85762 5.36407 35813 ft 517 kts 40°
2026-05-07 14:52 42.88382 5.39662 35963 ft 516 kts 40°
2026-05-07 14:52 42.91038 5.42969 35997 ft 514 kts 40°
2026-05-07 14:52 42.95438 5.48458 35989 ft 511 kts 40°
2026-05-07 14:53 43.00680 5.55008 35989 ft 511 kts 40°
2026-05-07 14:53 43.05926 5.61565 35989 ft 511 kts 40°
2026-05-07 14:54 43.11172 5.68145 35992 ft 510 kts 40°
2026-05-07 14:54 43.16397 5.74724 35992 ft 510 kts 40°
2026-05-07 14:55 43.21618 5.81315 36008 ft 510 kts 40°
2026-05-07 14:55 43.26836 5.87921 36012 ft 510 kts 40°
2026-05-07 14:56 43.32012 5.94481 36020 ft 510 kts 40°
2026-05-07 14:56 43.37574 6.00513 35997 ft 503 kts 26°
2026-05-07 14:57 43.40659 6.02614 35804 ft 500 kts 18°
2026-05-07 14:57 43.43991 6.04221 34529 ft 510 kts
2026-05-07 14:57 43.47349 6.05234 34805 ft 478 kts 359°
2026-05-07 14:57 43.50639 6.05524 34847 ft 475 kts 356°
2026-05-07 14:58 43.57272 6.05879 35173 ft 476 kts 356°
2026-05-07 14:58 43.60583 6.06115 35424 ft 477 kts 357°
2026-05-07 14:58 43.63887 6.06413 35670 ft 476 kts 358°
2026-05-07 14:59 43.67196 6.06761 35902 ft 477 kts 359°
2026-05-07 14:59 43.70518 6.07132 35958 ft 479 kts 359°
2026-05-07 14:59 43.77141 6.08460 35965 ft 487 kts 11°
2026-05-07 15:00 43.83475 6.12155 35965 ft 494 kts 22°
2026-05-07 15:00 43.89644 6.16365 35965 ft 493 kts 22°
2026-05-07 15:01 43.95749 6.20521 35965 ft 491 kts 22°
2026-05-07 15:01 44.01905 6.24730 35974 ft 492 kts 22°
2026-05-07 15:02 44.08047 6.28947 35998 ft 492 kts 22°
2026-05-07 15:02 44.14180 6.33164 35997 ft 492 kts 23°
2026-05-07 15:03 44.20326 6.37406 35997 ft 492 kts 23°
2026-05-07 15:03 44.26460 6.41651 36009 ft 492 kts 23°
2026-05-07 15:04 44.32597 6.45888 36007 ft 492 kts 23°
2026-05-07 15:04 44.38679 6.50101 35987 ft 491 kts 22°
2026-05-07 15:05 44.44795 6.54358 36008 ft 491 kts 23°
2026-05-07 15:05 44.50943 6.58652 36000 ft 490 kts 23°
2026-05-07 15:06 44.57029 6.62900 36002 ft 489 kts 23°
2026-05-07 15:06 44.63135 6.67171 35995 ft 489 kts 23°
2026-05-07 15:07 44.69216 6.71445 35993 ft 489 kts 23°
2026-05-07 15:07 44.75288 6.75708 35992 ft 487 kts 20°
2026-05-07 15:08 44.81700 6.78377 36001 ft 476 kts
2026-05-07 15:08 44.88230 6.78489 35998 ft 467 kts 352°
2026-05-07 15:09 44.94726 6.78043 36001 ft 467 kts 352°
2026-05-07 15:09 45.01226 6.77631 36009 ft 467 kts 352°
2026-05-07 15:10 45.07714 6.77220 36007 ft 467 kts 352°
2026-05-07 15:10 45.14205 6.76795 36003 ft 467 kts 352°
2026-05-07 15:11 45.20677 6.76360 36008 ft 466 kts 352°
2026-05-07 15:11 45.27143 6.75934 36004 ft 464 kts 352°
2026-05-07 15:12 45.33594 6.75501 36001 ft 464 kts 352°
2026-05-07 15:12 45.40064 6.75066 36017 ft 465 kts 353°
2026-05-07 15:13 45.46527 6.76266 36011 ft 477 kts 13°
2026-05-07 15:13 45.52583 6.80349 36010 ft 485 kts 27°
2026-05-07 15:14 45.58410 6.85199 36030 ft 485 kts 26°
2026-05-07 15:14 45.64250 6.90048 36021 ft 485 kts 26°
2026-05-07 15:15 45.70070 6.94889 36014 ft 484 kts 26°
2026-05-07 15:15 45.75886 6.99755 36012 ft 484 kts 26°
2026-05-07 15:16 45.81710 7.04643 35997 ft 484 kts 26°
2026-05-07 15:16 45.87496 7.09508 35992 ft 483 kts 26°
2026-05-07 15:17 45.93311 7.14410 35988 ft 483 kts 26°
2026-05-07 15:17 45.99104 7.19306 36003 ft 483 kts 26°
2026-05-07 15:18 46.04897 7.24207 35991 ft 483 kts 26°
2026-05-07 15:18 46.10711 7.29145 35968 ft 482 kts 26°
2026-05-07 15:19 46.16486 7.34067 35980 ft 482 kts 26°
2026-05-07 15:19 46.22253 7.38991 35976 ft 481 kts 27°
2026-05-07 15:20 46.27997 7.43906 35977 ft 481 kts 27°
2026-05-07 15:20 46.33746 7.48838 36006 ft 480 kts 27°
2026-05-07 15:21 46.39488 7.53772 36039 ft 480 kts 27°
2026-05-07 15:21 46.45217 7.58709 36042 ft 479 kts 27°
2026-05-07 15:22 46.50957 7.63671 36042 ft 479 kts 27°
2026-05-07 15:22 46.56677 7.68621 36049 ft 478 kts 27°
2026-05-07 15:23 46.62434 7.73488 36041 ft 477 kts 25°
2026-05-07 15:23 46.68300 7.77967 36038 ft 476 kts 23°
2026-05-07 15:24 46.74211 7.82348 36043 ft 476 kts 23°
2026-05-07 15:24 46.79149 7.86089 36043 ft 477 kts 24°
2026-05-07 15:25 46.85004 7.90621 36039 ft 477 kts 24°
2026-05-07 15:25 46.90903 7.95214 36060 ft 477 kts 24°
2026-05-07 15:26 46.96774 7.99776 36066 ft 476 kts 24°
2026-05-07 15:26 47.02647 8.04343 36056 ft 475 kts 24°
2026-05-07 15:27 47.08473 8.08878 36058 ft 475 kts 24°
2026-05-07 15:27 47.14322 8.13434 36059 ft 475 kts 24°
2026-05-07 15:28 47.20143 8.17992 36050 ft 474 kts 25°
2026-05-07 15:28 47.25997 8.22601 36049 ft 473 kts 25°
2026-05-07 15:29 47.31806 8.27177 36051 ft 473 kts 25°
2026-05-07 15:29 47.37612 8.31768 36047 ft 473 kts 25°
2026-05-07 15:30 47.43414 8.36357 36038 ft 472 kts 25°
2026-05-07 15:30 47.49195 8.40932 36042 ft 472 kts 25°
2026-05-07 15:31 47.54989 8.45537 36055 ft 472 kts 25°
2026-05-07 15:31 47.60768 8.50151 36055 ft 472 kts 25°
2026-05-07 15:32 47.66638 8.54840 36051 ft 472 kts 25°
2026-05-07 15:32 47.72388 8.59442 36059 ft 472 kts 25°
2026-05-07 15:33 47.78200 8.64106 36050 ft 472 kts 25°
2026-05-07 15:33 47.83969 8.68747 36054 ft 472 kts 25°
2026-05-07 15:34 47.89734 8.73405 36063 ft 471 kts 26°
2026-05-07 15:34 47.95496 8.78084 36056 ft 471 kts 26°
2026-05-07 15:35 48.01298 8.82798 36054 ft 471 kts 26°
2026-05-07 15:35 48.07062 8.87483 36054 ft 471 kts 26°
2026-05-07 15:36 48.12819 8.92175 36057 ft 470 kts 26°
2026-05-07 15:36 48.18895 8.95520 36051 ft 463 kts
2026-05-07 15:37 48.25243 8.96627 36049 ft 460 kts
2026-05-07 15:37 48.31614 8.97584 36057 ft 460 kts
2026-05-07 15:38 48.37981 8.98562 36051 ft 460 kts
2026-05-07 15:38 48.44356 8.99545 36046 ft 460 kts
2026-05-07 15:39 48.50748 9.00518 35482 ft 459 kts
2026-05-07 15:39 48.53944 9.01004 34644 ft 462 kts
2026-05-07 15:39 48.57153 9.01493 33793 ft 464 kts
2026-05-07 15:40 48.60363 9.01986 32838 ft 466 kts
2026-05-07 15:40 48.63595 9.02499 31913 ft 466 kts
2026-05-07 15:40 48.66810 9.03134 31143 ft 464 kts
2026-05-07 15:40 48.69984 9.03879 30396 ft 462 kts
2026-05-07 15:41 48.73159 9.04691 29584 ft 460 kts
2026-05-07 15:41 48.76304 9.05515 28728 ft 459 kts
2026-05-07 15:41 48.79436 9.06323 27892 ft 456 kts
2026-05-07 15:41 48.82562 9.07101 27093 ft 453 kts
2026-05-07 15:42 48.85675 9.07855 26310 ft 451 kts
2026-05-07 15:42 48.88763 9.08579 25546 ft 447 kts
2026-05-07 15:42 48.91839 9.09163 24810 ft 444 kts
2026-05-07 15:42 48.94871 9.09605 24106 ft 440 kts
2026-05-07 15:43 48.97943 9.09979 23353 ft 436 kts
2026-05-07 15:43 49.00955 9.10325 22604 ft 431 kts
2026-05-07 15:43 49.03940 9.10683 21877 ft 427 kts
2026-05-07 15:43 49.06879 9.11065 21167 ft 422 kts
2026-05-07 15:44 49.09781 9.11467 20471 ft 417 kts
2026-05-07 15:44 49.12655 9.11881 19796 ft 412 kts
2026-05-07 15:44 49.15494 9.12295 19160 ft 408 kts
2026-05-07 15:44 49.18310 9.12708 18574 ft 403 kts
2026-05-07 15:45 49.21077 9.13115 17922 ft 399 kts
2026-05-07 15:45 49.23833 9.13518 17249 ft 394 kts
2026-05-07 15:45 49.26553 9.13915 16593 ft 390 kts
2026-05-07 15:45 49.29222 9.14475 15953 ft 386 kts 11°
2026-05-07 15:46 49.34388 9.16309 14977 ft 370 kts 12°
2026-05-07 15:46 49.36834 9.17175 14848 ft 353 kts 11°
2026-05-07 15:46 49.39221 9.18021 14517 ft 343 kts 11°
2026-05-07 15:47 49.41504 9.18827 14058 ft 339 kts 11°
2026-05-07 15:47 49.43790 9.19636 13551 ft 335 kts 11°
2026-05-07 15:47 49.46053 9.20440 12983 ft 333 kts 11°
2026-05-07 15:47 49.48332 9.21251 12420 ft 330 kts 11°
2026-05-07 15:48 49.50565 9.22043 11867 ft 328 kts 11°
2026-05-07 15:48 49.52752 9.22821 11333 ft 326 kts 11°
2026-05-07 15:48 49.54954 9.23606 10806 ft 324 kts 11°
2026-05-07 15:48 49.57134 9.24382 10692 ft 323 kts 11°
2026-05-07 15:49 49.59359 9.25173 10621 ft 325 kts 11°
2026-05-07 15:49 49.61544 9.25953 10534 ft 325 kts 11°
2026-05-07 15:49 49.63017 9.26481 10461 ft 324 kts 11°
2026-05-07 15:49 49.65210 9.27268 10334 ft 323 kts 12°
2026-05-07 15:50 49.67395 9.28053 10200 ft 322 kts 12°
2026-05-07 15:50 49.69570 9.28836 10068 ft 322 kts 12°
2026-05-07 15:50 49.71732 9.29614 10048 ft 308 kts 11°
2026-05-07 15:50 49.73769 9.30345 10055 ft 292 kts 11°
2026-05-07 15:51 49.75728 9.31050 10050 ft 289 kts 11°
2026-05-07 15:51 49.77676 9.31751 10055 ft 288 kts 11°
2026-05-07 15:51 49.79641 9.32456 9882 ft 291 kts 11°
2026-05-07 15:51 49.81643 9.32872 9365 ft 288 kts 353°
2026-05-07 15:52 49.83570 9.32313 9117 ft 280 kts 345°
2026-05-07 15:52 49.85454 9.31569 8854 ft 278 kts 344°
2026-05-07 15:52 49.87315 9.30816 8594 ft 276 kts 344°
2026-05-07 15:52 49.89168 9.30065 8335 ft 275 kts 344°
2026-05-07 15:53 49.91019 9.29316 8084 ft 273 kts 343°
2026-05-07 15:53 49.92730 9.28110 7821 ft 269 kts 321°
2026-05-07 15:53 49.94111 9.26158 7561 ft 269 kts 315°
2026-05-07 15:53 49.95430 9.24107 7303 ft 267 kts 314°
2026-05-07 15:54 49.96713 9.22092 7135 ft 258 kts 314°
2026-05-07 15:54 49.97949 9.20150 7025 ft 247 kts 314°
2026-05-07 15:54 49.99131 9.18296 6881 ft 237 kts 314°
2026-05-07 15:54 50.00263 9.16524 6786 ft 223 kts 314°
2026-05-07 15:55 50.01328 9.14858 6628 ft 212 kts 314°
2026-05-07 15:55 50.02359 9.13244 6318 ft 209 kts 314°
2026-05-07 15:55 50.03381 9.11648 6013 ft 207 kts 314°
2026-05-07 15:55 50.04401 9.10054 5792 ft 208 kts 314°
2026-05-07 15:56 50.05422 9.08453 5587 ft 208 kts 314°
2026-05-07 15:56 50.06437 9.06859 5383 ft 207 kts 314°
2026-05-07 15:56 50.07444 9.05268 5173 ft 206 kts 314°
2026-05-07 15:56 50.08448 9.03670 4976 ft 205 kts 314°
2026-05-07 15:57 50.09441 9.02084 4773 ft 205 kts 314°
2026-05-07 15:57 50.10441 9.00460 4558 ft 203 kts 310°
2026-05-07 15:57 50.11064 8.98515 4352 ft 204 kts 288°
2026-05-07 15:57 50.11415 8.96372 4149 ft 205 kts 284°
2026-05-07 15:58 50.11732 8.94204 4033 ft 204 kts 284°
2026-05-07 15:58 50.11824 8.92017 4005 ft 207 kts 263°
2026-05-07 15:58 50.11388 8.89865 4009 ft 209 kts 252°
2026-05-07 15:58 50.10884 8.87738 4009 ft 209 kts 252°
2026-05-07 15:59 50.10384 8.85613 3956 ft 209 kts 252°
2026-05-07 15:59 50.09884 8.83493 3733 ft 208 kts 252°
2026-05-07 15:59 50.09387 8.81380 3469 ft 208 kts 252°
2026-05-07 15:59 50.08888 8.79267 3190 ft 206 kts 252°
2026-05-07 16:00 50.08401 8.77204 2915 ft 199 kts 252°
2026-05-07 16:00 50.07940 8.75255 2646 ft 186 kts 251°
2026-05-07 16:00 50.07502 8.73401 2399 ft 180 kts 251°
2026-05-07 16:00 50.07072 8.71584 2153 ft 174 kts 252°
2026-05-07 16:01 50.06671 8.69891 1928 ft 160 kts 252°
2026-05-07 16:01 50.06298 8.68319 1726 ft 153 kts 252°
2026-05-07 16:01 50.05936 8.66790 1504 ft 149 kts 251°
2026-05-07 16:01 50.05576 8.65272 1311 ft 149 kts 251°
2026-05-07 16:02 50.05223 8.63787 1107 ft 147 kts 252°
2026-05-07 16:02 50.04875 8.62310 917 ft 143 kts 252°
2026-05-07 16:02 50.04536 8.60872 727 ft 138 kts 250°
2026-05-07 16:02 50.04204 8.59482 528 ft 136 kts 250°
2026-05-07 16:03 50.03870 8.58083 376 ft 133 kts 250°
2026-05-07 16:03 50.03586 8.56899 359 ft 93 kts 249°
2026-05-07 16:03 50.03419 8.56198 362 ft 49 kts 249°
2026-05-07 16:03 50.03327 8.55792 359 ft 35 kts 254°
2026-05-07 16:04 50.03315 8.55500 358 ft 21 kts 278°
2026-05-07 16:04 50.03333 8.55315 363 ft 11 kts 278°
2026-05-07 16:04 50.03339 8.55263 359 ft 0 kts 281°
2026-05-07 16:06 50.03341 8.55250 359 ft 3 kts 281°
2026-05-07 16:06 50.03347 8.55197 361 ft 7 kts 280°
2026-05-07 16:06 50.03358 8.55093 359 ft 11 kts 279°
2026-05-07 16:06 50.03364 8.54958 361 ft 14 kts 262°
2026-05-07 16:07 50.03333 8.54807 367 ft 16 kts 249°
2026-05-07 16:07 50.03296 8.54653 363 ft 14 kts 250°
2026-05-07 16:07 50.03276 8.54532 367 ft 8 kts 281°
2026-05-07 16:07 50.03311 8.54482 366 ft 7 kts 336°
2026-05-07 16:08 50.03367 8.54449 361 ft 7 kts 340°
2026-05-07 16:08 50.03376 8.54444 360 ft 0 kts 339°
2026-05-07 16:09 50.03377 8.54443 363 ft 2 kts 339°
2026-05-07 16:09 50.03425 8.54415 360 ft 13 kts 339°
2026-05-07 16:09 50.03518 8.54362 360 ft 12 kts 340°
2026-05-07 16:10 50.03590 8.54321 359 ft 10 kts 340°
2026-05-07 16:10 50.03652 8.54329 367 ft 10 kts 41°
2026-05-07 16:10 50.03685 8.54429 363 ft 11 kts 69°
2026-05-07 16:10 50.03720 8.54575 366 ft 17 kts 70°
2026-05-07 16:11 50.03763 8.54751 362 ft 18 kts 69°
2026-05-07 16:11 50.03808 8.54946 365 ft 20 kts 70°
2026-05-07 16:11 50.03859 8.55156 362 ft 21 kts 70°
2026-05-07 16:11 50.03912 8.55381 363 ft 23 kts 69°
2026-05-07 16:12 50.03956 8.55563 364 ft 18 kts 70°
2026-05-07 16:12 50.03998 8.55738 366 ft 10 kts 69°
2026-05-07 16:12 50.04009 8.55784 361 ft 6 kts 69°
2026-05-07 16:12 50.04028 8.55865 367 ft 11 kts 69°
2026-05-07 16:13 50.04060 8.56000 362 ft 16 kts 70°
2026-05-07 16:13 50.04102 8.56175 365 ft 18 kts 69°
2026-05-07 16:13 50.04148 8.56367 362 ft 20 kts 70°
2026-05-07 16:13 50.04182 8.56510 364 ft 13 kts 70°
2026-05-07 16:14 50.04216 8.56614 366 ft 10 kts 42°
2026-05-07 16:14 50.04281 8.56613 363 ft 10 kts 340°
2026-05-07 16:14 50.04306 8.56598 364 ft 0 kts 339°
2026-05-07 16:15 50.04328 8.56586 362 ft 8 kts 339°
2026-05-07 16:15 50.04373 8.56538 362 ft 8 kts 292°
2026-05-07 16:16 50.04360 8.56446 366 ft 10 kts 250°
2026-05-07 16:16 50.04334 8.56336 365 ft 12 kts 250°
2026-05-07 16:16 50.04303 8.56208 363 ft 13 kts 249°
2026-05-07 16:16 50.04299 8.56089 368 ft 11 kts 310°
2026-05-07 16:17 50.04375 8.56037 361 ft 10 kts 340°
2026-05-07 16:17 50.04420 8.56039 364 ft 6 kts 26°
2026-05-07 16:17 50.04446 8.56098 363 ft 8 kts 68°
2026-05-07 16:17 50.04466 8.56177 366 ft 7 kts 69°
2026-05-07 16:18 50.04474 8.56209 367 ft 4 kts 66°
2026-05-07 16:18 50.04498 8.56220 364 ft 4 kts 350°
2026-05-07 16:18 50.04514 8.56212 365 ft 2 kts 342°
2026-05-07 16:18 50.04527 8.56214 363 ft 1 kts 14°
2026-05-07 16:19 50.04538 8.56224 365 ft 2 kts 31°
2026-05-07 16:19 50.04541 8.56227 365 ft 0 kts 33°